[[{"header":{"parameterUnit":"m.s-1","parameterCategory":1,"la1":30.2991,"la2":30.254,"lo1":-89.0895,"lo2":-89.0444,"dy":0.0017,"dx":0.0017,"nx":28,"ny":28,"refTime":"2023-11-12T03:00:00:Z","depth":0,"parameterNumber":2,"parameterNumberName":"U-component_of_WINDS"},"data":[0,0,0,0,0,0,0,0,0,0,0,0,0,0,0,0,0,0,0,0,0,0,0,0,0,0,0,0,0,0,0,0,0,0,0,0,0,0,0,0,0,0,0,0,0,0,0,0,0,0,0,0,0,0,0,0,0,0,-2.7593,-2.7593,0,-2.7529,-2.7528,-2.7528,-2.7427,-2.7425,-2.7424,-2.7422,-2.7356,-2.7356,-2.7356,0,0,0,0,0,0,0,0,0,0,0,0,0,-2.763,-2.763,-2.7594,-2.7593,-2.7592,-2.7529,-2.7528,-2.7527,-2.7427,-2.7425,-2.7423,-2.7421,-2.7356,-2.7356,-2.7356,0,0,0,0,0,0,0,0,0,0,0,0,0,-2.7595,-2.763,-2.7594,-2.7534,-2.7528,-2.7529,-2.7528,-2.7527,-2.7428,-2.7425,-2.7422,-2.742,-2.7356,-2.7356,-2.7356,-2.741,0,0,-2.7356,-2.7356,0,0,0,0,0,0,0,0,-2.7597,-2.7594,-2.7544,-2.7539,-2.7532,-2.7483,-2.7517,-2.7488,-2.7429,-2.7466,-2.7422,-2.7419,-2.7401,-2.7397,-2.7391,-2.7407,-2.7404,-2.7356,-2.7356,-2.7356,-2.7356,0,0,0,0,0,0,0,-2.76,-2.7596,-2.7568,-2.7543,-2.7536,-2.7511,-2.7503,-2.7511,-2.7449,-2.7463,-2.7455,-2.7449,-2.7397,-2.7391,-2.7388,-2.7403,-2.7356,-2.7356,-2.7356,-2.7356,-2.7459,-2.7462,0,0,0,0,0,0,-2.7611,-2.7599,-2.757,-2.7566,-2.7559,-2.7513,-2.7504,-2.7502,-2.7449,-2.7438,-2.7451,-2.7445,-2.7393,-2.7389,-2.7386,-2.7445,-2.7356,-2.7356,-2.7356,-2.7456,-2.746,-2.7463,0,0,0,0,0,0,-2.7612,-2.7609,-2.7573,-2.758,-2.7574,-2.7515,-2.7513,-2.7502,-2.7496,-2.744,-2.7429,-2.7457,-2.739,-2.7386,-2.7404,-2.7441,-2.7356,-2.7356,-2.7453,-2.7458,-2.7461,-2.7564,0,0,0,0,0,0,-2.7614,-2.761,-2.763,-2.7581,-2.7574,-2.7593,-2.7516,-2.7503,-2.7496,-2.7486,-2.7442,-2.7433,-2.7388,-2.7405,-2.7404,-2.744,-2.7355,-2.745,-2.7455,-2.746,-2.7558,-2.7572,-2.7584,0,0,0,0,0,-2.7615,-2.7662,-2.7632,-2.7629,-2.7597,-2.7595,-2.7591,-2.7538,-2.7499,-2.7519,-2.7483,-2.7434,-2.7437,-2.7408,-2.7406,-2.7442,-2.7447,-2.7454,-2.746,-2.7552,-2.7569,-2.7584,0,0,0,0,0,0,-2.7717,-2.7654,-2.762,-2.7652,-2.763,-2.7578,-2.7601,-2.7558,-2.7546,-2.7538,-2.7473,-2.7464,-2.7491,-2.7468,-2.7436,-2.7491,-2.7435,-2.7441,-2.7505,-2.7521,-2.7534,-2.7539,-2.7355,0,0,0,0,0,-2.7743,-2.7746,-2.7691,-2.7725,-2.7715,-2.7661,-2.7658,-2.7619,-2.7593,-2.7583,-2.7549,-2.7525,-2.7521,-2.752,-2.7512,-2.7553,-2.7542,-2.7577,-2.759,-2.7601,-2.7608,-2.7628,-2.7643,-2.7484,-2.7484,-2.7483,0,0,-2.7797,-2.7763,-2.7769,-2.7745,-2.7722,-2.7728,-2.7653,-2.7662,-2.7665,-2.7584,-2.76,-2.7574,-2.7543,-2.7574,-2.7585,-2.7555,-2.7649,-2.7609,-2.7619,-2.7619,-2.7636,-2.7651,-2.7665,-2.7488,-2.7487,-2.7486,0,0,-2.7898,-2.7873,-2.7898,-2.7877,-2.7844,-2.7807,-2.7814,-2.7768,-2.7748,-2.7763,-2.7702,-2.7705,-2.7699,-2.768,-2.7669,-2.7763,-2.7718,-2.7762,-2.7832,-2.7852,-2.7864,-2.7875,-2.7909,-2.7922,-2.7769,-2.7769,-2.7769,0,-2.7969,-2.7974,-2.7916,-2.7929,-2.792,-2.7847,-2.7872,-2.7855,-2.7822,-2.7817,-2.7784,-2.7775,-2.775,-2.7774,-2.7797,-2.7791,-2.7796,-2.7768,-2.7867,-2.7877,-2.7887,-2.7918,-2.7931,-2.7775,-2.7774,-2.7774,-2.7773,0,-2.8064,-2.8068,-2.8093,-2.8062,-2.8056,-2.8075,-2.802,-2.8021,-2.7983,-2.7949,-2.7965,-2.7931,-2.7917,-2.7919,-2.7882,-2.7939,-2.7921,-2.7879,-2.7821,-2.7908,-2.7937,-2.7949,-2.7783,-2.7781,-2.7779,-2.7778,0,0,-2.8228,-2.8165,-2.8175,-2.816,-2.8119,-2.8121,-2.8137,-2.8122,-2.8124,-2.8103,-2.8115,-2.8111,-2.8071,-2.8059,-2.8019,-2.8037,-2.8114,-2.7992,-2.799,-2.8016,-2.8174,-2.8207,-2.8222,-2.8083,-2.8085,-2.8087,-2.8177,0,-2.8321,-2.8344,-2.8292,-2.8328,-2.8331,-2.8262,-2.8275,-2.8251,-2.822,-2.8219,-2.8184,-2.8183,-2.813,-2.8123,-2.8137,-2.8102,-2.8145,-2.8094,-2.8093,-2.8094,-2.8104,-2.8237,-2.8272,-2.8359,-2.8188,-2.819,-2.8191,0,-2.8433,-2.8418,-2.8454,-2.841,-2.841,-2.8423,-2.8405,-2.8404,-2.8376,-2.8352,-2.8339,-2.8292,-2.8304,-2.8248,-2.8263,-2.823,-2.8227,-2.8209,-2.8211,-2.821,-2.8149,-2.824,-2.8385,-2.8399,-2.8208,-2.8207,-2.8205,0,-2.855,-2.8539,-2.8559,-2.8548,-2.8497,-2.8508,-2.8488,-2.8456,-2.8451,-2.8435,-2.843,-2.8417,-2.8409,-2.8399,-2.835,-2.8314,-2.8372,-2.8312,-2.8353,-2.8354,-2.8369,-2.8369,-2.8517,-2.8366,-2.8366,-2.8365,-2.8365,0,-2.866,-2.8685,-2.861,-2.8623,-2.8649,-2.8589,-2.8616,-2.8588,-2.8561,-2.8567,-2.8506,-2.8513,-2.8446,-2.8446,-2.8407,-2.8426,-2.8423,-2.8404,-2.8394,-2.841,-2.8413,-2.8408,-2.8401,-2.8369,-2.8368,-2.8367,-2.8367,0,-2.8795,-2.8746,-2.8763,-2.8714,-2.8702,-2.8723,-2.8681,-2.869,-2.8655,-2.8663,-2.8662,-2.8607,-2.8603,-2.8553,-2.8538,-2.8512,-2.8547,-2.8524,-2.8557,-2.855,-2.8594,-2.8591,-2.8744,-2.8761,-2.86,-2.8601,-2.8602,0,-2.8869,-2.8886,-2.8838,-2.8838,-2.882,-2.882,-2.8814,-2.8755,-2.8752,-2.872,-2.8734,-2.8725,-2.8715,-2.8712,-2.8671,-2.8659,-2.8637,-2.8691,-2.8635,-2.8651,-2.8638,-2.8638,-2.864,-2.8704,-2.8706,-2.8707,-2.8709,0,-2.9005,-2.898,-2.8973,-2.8959,-2.8953,-2.8938,-2.892,-2.8923,-2.8859,-2.8857,-2.8853,-2.8845,-2.883,-2.8822,-2.8803,-2.8782,-2.8735,-2.8727,-2.8736,-2.8753,-2.8771,-2.8763,-2.859,-2.8724,-2.8722,-2.8721,-2.872,-2.872,-2.9112,-2.9125,-2.9093,-2.9087,-2.9067,-2.9052,-2.9058,-2.9024,-2.9019,-2.9002,-2.8968,-2.8969,-2.8939,-2.8908,-2.8891,-2.889,-2.8862,-2.8875,-2.8879,-2.8883,-2.8892,-2.8771,-2.8887,-2.8886,-2.8886,-2.8885,-2.8885,0,-2.9246,-2.9222,-2.9218,-2.9194,-2.919,-2.9145,-2.9122,-2.9122,-2.9124,-2.91,-2.9091,-2.9086,-2.9078,-2.9036,-2.9023,-2.9031,-2.9009,-2.903,-2.9029,-2.9025,-2.8918,-2.8912,-2.9048,-2.9048,-2.9048,-2.9048,-2.9048,-2.9048,-2.9315,-2.9334,-2.9305,-2.9313,-2.9288,-2.9289,-2.928,-2.9265,-2.9245,-2.9242,-2.9236,-2.9208,-2.9177,-2.9161,-2.9152,-2.914,-2.9138,-2.9166,-2.9147,-2.9048,-2.9032,-2.9018,-2.9011,-2.9166,-2.9166,-2.9254,-2.9255,-2.9256]},{"header":{"parameterUnit":"m.s-1","parameterCategory":1,"la1":30.2991,"la2":30.254,"lo1":-89.0895,"lo2":-89.0444,"dy":0.0017,"dx":0.0017,"nx":28,"ny":28,"refTime":"2023-11-12T03:00:00:Z","depth":0,"parameterNumber":3,"parameterNumberName":"V-component_of_WINDS"},"data":[0,0,0,0,0,0,0,0,0,0,0,0,0,0,0,0,0,0,0,0,0,0,0,0,0,0,0,0,0,0,0,0,0,0,0,0,0,0,0,0,0,0,0,0,0,0,0,0,0,0,0,0,0,0,0,0,0,0,-4.66,-4.66,0,-4.6658,-4.6659,-4.666,-4.6602,-4.66,-4.6597,-4.6595,-4.665,-4.6654,-4.6657,0,0,0,0,0,0,0,0,0,0,0,0,0,-4.6432,-4.6436,-4.66,-4.66,-4.6601,-4.6658,-4.6659,-4.666,-4.6602,-4.6599,-4.6597,-4.6594,-4.6649,-4.6653,-4.6658,0,0,0,0,0,0,0,0,0,0,0,0,0,-4.6499,-4.6437,-4.6599,-4.6579,-4.6578,-4.6658,-4.6659,-4.666,-4.6603,-4.6599,-4.6596,-4.6593,-4.6648,-4.6653,-4.6658,-4.6759,0,0,-4.6675,-4.6677,0,0,0,0,0,0,0,0,-4.6496,-4.6506,-4.6582,-4.6581,-4.658,-4.6619,-4.662,-4.6693,-4.6604,-4.6593,-4.6595,-4.6591,-4.6642,-4.6648,-4.6666,-4.6762,-4.6764,-4.6675,-4.6678,-4.6681,-4.6682,0,0,0,0,0,0,0,-4.6491,-4.6503,-4.6623,-4.6583,-4.6582,-4.6566,-4.6571,-4.6634,-4.6636,-4.6594,-4.659,-4.6598,-4.6641,-4.6661,-4.6667,-4.6765,-4.6675,-4.668,-4.6683,-4.6685,-4.6946,-4.695,0,0,0,0,0,0,-4.6489,-4.6499,-4.6621,-4.6624,-4.6529,-4.6571,-4.6578,-4.661,-4.6635,-4.6636,-4.6601,-4.6595,-4.6654,-4.6661,-4.6669,-4.6789,-4.6681,-4.6686,-4.6689,-4.6943,-4.6947,-4.6951,0,0,0,0,0,0,-4.6486,-4.6501,-4.6618,-4.6561,-4.6575,-4.6578,-4.6614,-4.6613,-4.6633,-4.664,-4.664,-4.6621,-4.6651,-4.6661,-4.6738,-4.679,-4.6688,-4.6693,-4.6938,-4.6944,-4.6949,-4.7031,0,0,0,0,0,0,-4.6481,-4.65,-4.654,-4.6562,-4.6578,-4.6688,-4.6618,-4.6617,-4.6643,-4.6636,-4.666,-4.666,-4.6649,-4.673,-4.6743,-4.6796,-4.6697,-4.6934,-4.6941,-4.6948,-4.7023,-4.7039,-4.7051,0,0,0,0,0,-4.6476,-4.6559,-4.6542,-4.6557,-4.6628,-4.6691,-4.67,-4.6688,-4.6648,-4.6687,-4.6691,-4.6659,-4.6782,-4.6738,-4.6752,-4.6808,-4.693,-4.6939,-4.6947,-4.7017,-4.7036,-4.7051,0,0,0,0,0,0,-4.6541,-4.6562,-4.6543,-4.6637,-4.6663,-4.6681,-4.673,-4.6707,-4.6744,-4.6736,-4.6717,-4.6723,-4.6804,-4.6813,-4.6764,-4.6907,-4.685,-4.6861,-4.6898,-4.6916,-4.6929,-4.6925,-4.6702,0,0,0,0,0,-4.6566,-4.6618,-4.6632,-4.6713,-4.6728,-4.6727,-4.6754,-4.6742,-4.6768,-4.6778,-4.6788,-4.6813,-4.6857,-4.6887,-4.6928,-4.7024,-4.7028,-4.7069,-4.7083,-4.7095,-4.7105,-4.7156,-4.7175,-4.6979,-4.6979,-4.6979,0,0,-4.6619,-4.6637,-4.667,-4.6727,-4.6746,-4.6798,-4.6737,-4.6794,-4.6832,-4.6786,-4.686,-4.6868,-4.6894,-4.6981,-4.702,-4.6992,-4.716,-4.7105,-4.7114,-4.7118,-4.7167,-4.7185,-4.7202,-4.6984,-4.6983,-4.6983,0,0,-4.6742,-4.6761,-4.6831,-4.6851,-4.6882,-4.6881,-4.6897,-4.692,-4.6924,-4.6998,-4.6965,-4.7008,-4.7085,-4.7105,-4.7126,-4.7257,-4.7228,-4.727,-4.7343,-4.7394,-4.7409,-4.7423,-4.7469,-4.7486,-4.728,-4.728,-4.7281,0,-4.6803,-4.6882,-4.6869,-4.693,-4.6956,-4.6918,-4.6988,-4.7008,-4.7049,-4.7067,-4.7035,-4.713,-4.7145,-4.7237,-4.7269,-4.7286,-4.7304,-4.7268,-4.7408,-4.7422,-4.7434,-4.7479,-4.7496,-4.7285,-4.7285,-4.7284,-4.7284,0,-4.6956,-4.7011,-4.7064,-4.7107,-4.7139,-4.7203,-4.7198,-4.7231,-4.7217,-4.7219,-4.7294,-4.7311,-4.7354,-4.7375,-4.736,-4.7464,-4.7446,-4.7411,-4.7353,-4.7458,-4.7499,-4.7516,-4.7292,-4.7291,-4.7289,-4.7288,0,0,-4.7122,-4.7158,-4.7177,-4.7196,-4.7227,-4.7268,-4.7331,-4.7376,-4.7404,-4.7434,-4.7485,-4.7551,-4.752,-4.7543,-4.753,-4.7574,-4.7677,-4.7534,-4.7534,-4.756,-4.7792,-4.7818,-4.7838,-4.7658,-4.7662,-4.7664,-4.779,0,-4.7246,-4.7357,-4.7347,-4.7452,-4.7502,-4.7467,-4.7522,-4.7545,-4.7549,-4.7591,-4.7593,-4.7641,-4.7595,-4.7609,-4.7651,-4.7656,-4.7723,-4.7646,-4.7705,-4.7707,-4.77,-4.786,-4.7888,-4.8006,-4.7806,-4.7809,-4.7811,0,-4.7406,-4.7444,-4.7554,-4.7577,-4.7598,-4.7648,-4.7688,-4.7729,-4.7754,-4.7753,-4.778,-4.776,-4.7821,-4.7762,-4.7845,-4.7793,-4.7816,-4.7822,-4.7826,-4.7832,-4.7766,-4.787,-4.8043,-4.8061,-4.7836,-4.7834,-4.7832,0,-4.7516,-4.7594,-4.767,-4.7688,-4.7717,-4.7752,-4.7766,-4.7788,-4.7816,-4.785,-4.7868,-4.7908,-4.793,-4.7961,-4.7952,-4.7909,-4.8037,-4.7977,-4.8038,-4.8038,-4.8067,-4.8065,-4.8247,-4.8081,-4.8081,-4.808,-4.808,0,-4.7656,-4.7725,-4.772,-4.7767,-4.7843,-4.783,-4.7905,-4.7913,-4.7934,-4.798,-4.7952,-4.7996,-4.798,-4.8023,-4.8016,-4.8086,-4.8096,-4.8097,-4.8094,-4.81,-4.81,-4.8115,-4.8106,-4.8085,-4.8084,-4.8083,-4.8082,0,-4.7792,-4.7792,-4.7873,-4.7894,-4.7901,-4.7956,-4.7974,-4.8017,-4.8018,-4.8078,-4.8091,-4.8092,-4.8141,-4.8135,-4.8189,-4.8184,-4.8272,-4.8259,-4.8264,-4.8261,-4.8322,-4.8316,-4.852,-4.8546,-4.8363,-4.8365,-4.8366,0,-4.7882,-4.7935,-4.7962,-4.7993,-4.8009,-4.8058,-4.8087,-4.8075,-4.8106,-4.8139,-4.8178,-4.8225,-4.8262,-4.8342,-4.8346,-4.8387,-4.8375,-4.8444,-4.8381,-4.8385,-4.8377,-4.8374,-4.8379,-4.8456,-4.8458,-4.846,-4.8461,0,-4.8041,-4.8039,-4.8082,-4.8126,-4.8162,-4.8195,-4.8225,-4.8251,-4.8242,-4.8277,-4.8328,-4.8357,-4.8413,-4.8459,-4.8498,-4.8509,-4.8484,-4.8481,-4.8497,-4.8504,-4.8505,-4.8505,-4.8298,-4.8476,-4.8475,-4.8474,-4.8473,-4.8472,-4.8157,-4.8203,-4.823,-4.8279,-4.8301,-4.833,-4.8372,-4.8379,-4.8422,-4.8468,-4.8458,-4.8515,-4.8538,-4.8588,-4.8604,-4.8647,-4.8622,-4.8645,-4.8651,-4.8658,-4.8665,-4.8498,-4.8654,-4.8654,-4.8653,-4.8653,-4.8653,0,-4.8315,-4.8331,-4.8377,-4.8421,-4.846,-4.8434,-4.8466,-4.8499,-4.8551,-4.8576,-4.8613,-4.8671,-4.8716,-4.8725,-4.8767,-4.88,-4.879,-4.8812,-4.8809,-4.8813,-4.8685,-4.8667,-4.882,-4.882,-4.882,-4.882,-4.882,-4.882,-4.8402,-4.8478,-4.8479,-4.8564,-4.8579,-4.8637,-4.8657,-4.8683,-4.8703,-4.877,-4.8808,-4.8814,-4.8832,-4.8876,-4.8915,-4.8916,-4.8933,-4.8961,-4.8957,-4.8838,-4.8821,-4.8805,-4.8789,-4.8964,-4.8965,-4.9081,-4.9082,-4.9083]}]]